[[{"header":{"parameterUnit":"m.s-1","parameterCategory":1,"la1":30.2991,"la2":30.254,"lo1":-89.0895,"lo2":-89.0444,"dy":0.0017,"dx":0.0017,"nx":28,"ny":28,"refTime":"2025-11-25T03:00:00:Z","depth":0,"parameterNumber":2,"parameterNumberName":"U-component_of_WINDS"},"data":[0,0,0,0,0,0,0,0,0,0,0,0,0,0,0,0,0,0,0,0,0,0,0,0,0,0,0,0,0,0,0,0,0,0,0,0,0,0,0,0,0,0,0,0,0,0,0,0,0,0,0,0,0,0,0,0,0,0,0.8995,0.8995,0,0.9011,0.9011,0.9011,0.9009,0.9009,0.9009,0.9008,0.9026,0.9027,0.9028,0,0,0,0,0,0,0,0,0,0,0,0,0,0.8965,0.8965,0.8994,0.8995,0.8995,0.9011,0.9011,0.9011,0.9009,0.9009,0.9009,0.9008,0.9026,0.9027,0.9028,0,0,0,0,0,0,0,0,0,0,0,0,0,0.8979,0.8965,0.8994,0.8996,0.8996,0.9011,0.9011,0.9011,0.9009,0.9009,0.9008,0.9008,0.9026,0.9027,0.9028,0.9043,0,0,0.9031,0.9032,0,0,0,0,0,0,0,0,0.8978,0.898,0.8995,0.8996,0.8996,0.9007,0.9007,0.9022,0.9009,0.9004,0.9008,0.9008,0.9021,0.9022,0.9026,0.9044,0.9044,0.9032,0.9032,0.9033,0.9033,0,0,0,0,0,0,0,0.8977,0.8979,0.9001,0.8996,0.8996,0.8997,0.8998,0.901,0.9015,0.9005,0.9005,0.9007,0.9021,0.9025,0.9026,0.9045,0.9032,0.9032,0.9033,0.9034,0.9077,0.9078,0,0,0,0,0,0,0.8976,0.8979,0.9,0.9001,0.8986,0.8997,0.8999,0.9004,0.9014,0.9016,0.9007,0.9006,0.9023,0.9025,0.9027,0.9046,0.9033,0.9034,0.9034,0.9077,0.9077,0.9078,0,0,0,0,0,0,0.8975,0.8977,0.9,0.899,0.8993,0.8998,0.9004,0.9005,0.9009,0.9016,0.9017,0.901,0.9023,0.9026,0.9039,0.9047,0.9034,0.9035,0.9076,0.9077,0.9078,0.9084,0,0,0,0,0,0,0.8974,0.8977,0.8982,0.899,0.8993,0.9011,0.9004,0.9005,0.9011,0.901,0.9019,0.902,0.9023,0.9038,0.904,0.9048,0.9036,0.9076,0.9077,0.9078,0.9083,0.9084,0.9086,0,0,0,0,0,0.8973,0.8983,0.8982,0.8985,0.8999,0.9011,0.9013,0.9015,0.9011,0.9017,0.9022,0.902,0.9046,0.9039,0.9042,0.905,0.9075,0.9076,0.9077,0.9082,0.9084,0.9086,0,0,0,0,0,0,0.8976,0.8984,0.8983,0.8996,0.9003,0.9011,0.9018,0.9017,0.9026,0.9025,0.9028,0.903,0.9044,0.9049,0.9041,0.9066,0.906,0.9062,0.9062,0.9064,0.9066,0.9065,0.9037,0,0,0,0,0,0.8978,0.8986,0.8993,0.9004,0.9007,0.9012,0.9017,0.9018,0.9026,0.9029,0.9034,0.9042,0.9052,0.9059,0.9068,0.9084,0.9086,0.9091,0.9092,0.9094,0.9095,0.9106,0.9108,0.9082,0.9082,0.9082,0,0,0.8982,0.8988,0.8993,0.9004,0.901,0.9019,0.9014,0.9024,0.9031,0.903,0.9044,0.9048,0.9058,0.9073,0.908,0.9077,0.9103,0.9095,0.9096,0.9097,0.9107,0.911,0.9112,0.9083,0.9082,0.9082,0,0,0.8995,0.9,0.901,0.9016,0.9024,0.9027,0.903,0.9038,0.9041,0.9055,0.9055,0.9064,0.9081,0.9088,0.9093,0.9111,0.9111,0.9114,0.9122,0.9132,0.9135,0.9136,0.9144,0.9146,0.9116,0.9116,0.9116,0,0.9,0.9013,0.9015,0.9025,0.9031,0.9031,0.9042,0.9048,0.9059,0.9063,0.906,0.9082,0.9088,0.9106,0.911,0.9114,0.9119,0.9113,0.9134,0.9136,0.9138,0.9145,0.9148,0.9116,0.9116,0.9116,0.9116,0,0.9019,0.9028,0.9035,0.9046,0.9053,0.9064,0.9068,0.9075,0.9076,0.9081,0.9096,0.9103,0.9115,0.9119,0.912,0.9137,0.9136,0.9133,0.9127,0.9141,0.9148,0.915,0.9117,0.9117,0.9116,0.9116,0,0,0.9033,0.9046,0.9048,0.9054,0.9064,0.9072,0.9083,0.9095,0.9101,0.9109,0.912,0.9135,0.9133,0.914,0.9142,0.9151,0.9166,0.9147,0.9148,0.9151,0.9187,0.919,0.9193,0.9166,0.9167,0.9167,0.9187,0,0.9047,0.9066,0.9069,0.9087,0.9096,0.9097,0.9107,0.9116,0.912,0.913,0.9136,0.9147,0.9143,0.9147,0.9156,0.9162,0.9174,0.9161,0.9177,0.9178,0.9175,0.9196,0.9198,0.9216,0.919,0.919,0.919,0,0.9066,0.9075,0.9093,0.9103,0.9108,0.9117,0.9128,0.9137,0.9147,0.915,0.9158,0.916,0.9174,0.9167,0.9187,0.9178,0.9185,0.919,0.9191,0.9192,0.9185,0.9199,0.9222,0.9225,0.9194,0.9194,0.9194,0,0.9075,0.9092,0.9105,0.911,0.9122,0.9129,0.9134,0.9144,0.9151,0.9162,0.9167,0.9179,0.9186,0.9196,0.9201,0.9196,0.9221,0.9215,0.9225,0.9225,0.923,0.9229,0.9255,0.9234,0.9234,0.9234,0.9234,0,0.9091,0.9102,0.911,0.9118,0.9132,0.9136,0.915,0.9155,0.9164,0.9175,0.9176,0.9186,0.9193,0.9205,0.9209,0.9226,0.9228,0.9232,0.9233,0.9232,0.9232,0.9237,0.9236,0.9234,0.9234,0.9234,0.9234,0,0.9103,0.9109,0.9124,0.9134,0.9137,0.9147,0.9157,0.9166,0.9171,0.9185,0.9188,0.9197,0.9211,0.9217,0.9234,0.9238,0.9257,0.9257,0.9253,0.9253,0.9264,0.9263,0.9293,0.9298,0.9274,0.9274,0.9274,0,0.9113,0.9122,0.9134,0.9141,0.9146,0.9157,0.9165,0.917,0.9178,0.9192,0.9199,0.9213,0.9225,0.9247,0.9256,0.9269,0.927,0.928,0.9272,0.9271,0.9271,0.9271,0.9273,0.9281,0.9282,0.9282,0.9282,0,0.913,0.9133,0.9143,0.9155,0.9164,0.9173,0.9183,0.9189,0.9196,0.9205,0.9219,0.9228,0.9246,0.9261,0.9276,0.9283,0.9284,0.9285,0.9288,0.9287,0.9284,0.9287,0.9257,0.9284,0.9283,0.9283,0.9283,0.9283,0.9141,0.915,0.916,0.9172,0.918,0.9189,0.9199,0.9206,0.9217,0.9232,0.9235,0.925,0.9262,0.9282,0.929,0.9303,0.9301,0.9306,0.9307,0.9308,0.9309,0.9282,0.9306,0.9306,0.9306,0.9306,0.9306,0,0.9159,0.9166,0.9177,0.9191,0.9201,0.9201,0.9212,0.9221,0.9234,0.9245,0.9256,0.9274,0.9288,0.9299,0.9314,0.9322,0.9324,0.9326,0.9326,0.9328,0.9309,0.9305,0.9325,0.9325,0.9325,0.9325,0.9325,0.9325,0.9169,0.9184,0.9188,0.9208,0.9215,0.9229,0.9236,0.9246,0.9254,0.9273,0.9285,0.9292,0.9303,0.932,0.9334,0.9337,0.9342,0.9345,0.9348,0.9331,0.9329,0.9327,0.9323,0.9346,0.9346,0.9366,0.9366,0.9366]},{"header":{"parameterUnit":"m.s-1","parameterCategory":1,"la1":30.2991,"la2":30.254,"lo1":-89.0895,"lo2":-89.0444,"dy":0.0017,"dx":0.0017,"nx":28,"ny":28,"refTime":"2025-11-25T03:00:00:Z","depth":0,"parameterNumber":3,"parameterNumberName":"V-component_of_WINDS"},"data":[0,0,0,0,0,0,0,0,0,0,0,0,0,0,0,0,0,0,0,0,0,0,0,0,0,0,0,0,0,0,0,0,0,0,0,0,0,0,0,0,0,0,0,0,0,0,0,0,0,0,0,0,0,0,0,0,0,0,5.829,5.8291,0,5.8394,5.8396,5.8397,5.8412,5.8411,5.841,5.8409,5.8512,5.8516,5.8519,0,0,0,0,0,0,0,0,0,0,0,0,0,5.8103,5.8107,5.829,5.8291,5.8293,5.8394,5.8396,5.8397,5.8412,5.8411,5.841,5.8409,5.8511,5.8515,5.8519,0,0,0,0,0,0,0,0,0,0,0,0,0,5.8193,5.8108,5.829,5.8313,5.8316,5.8394,5.8396,5.8397,5.8412,5.8411,5.841,5.8408,5.8509,5.8515,5.852,5.8582,0,0,5.8537,5.8539,0,0,0,0,0,0,0,0,5.8188,5.82,5.8308,5.8311,5.8315,5.8389,5.8367,5.8459,5.8413,5.8376,5.8409,5.8408,5.8472,5.848,5.8503,5.8586,5.8591,5.8537,5.854,5.8543,5.8544,0,0,0,0,0,0,0,5.8182,5.8196,5.8331,5.831,5.8314,5.8317,5.8329,5.8385,5.843,5.8379,5.838,5.8392,5.8473,5.8498,5.8505,5.8592,5.8537,5.8542,5.8545,5.8547,5.8736,5.8737,0,0,0,0,0,0,5.8172,5.8191,5.8328,5.8334,5.8247,5.8322,5.8334,5.8366,5.843,5.8438,5.8393,5.8393,5.8489,5.8499,5.8509,5.8588,5.8543,5.8548,5.8551,5.8734,5.8736,5.8738,0,0,0,0,0,0,5.8168,5.8184,5.8324,5.8263,5.8281,5.8327,5.8362,5.8369,5.8393,5.8441,5.8449,5.841,5.8488,5.8501,5.8565,5.8591,5.855,5.8555,5.8732,5.8735,5.8737,5.8744,0,0,0,0,0,0,5.8163,5.8183,5.8206,5.8263,5.8284,5.8378,5.8364,5.8372,5.8403,5.8403,5.8458,5.8466,5.8488,5.8556,5.857,5.8598,5.8559,5.873,5.8733,5.8736,5.8742,5.8747,5.8751,0,0,0,0,0,5.8156,5.8202,5.8207,5.8224,5.8315,5.8379,5.8391,5.8417,5.8405,5.843,5.8461,5.8464,5.8586,5.8563,5.8578,5.8608,5.8728,5.8732,5.8736,5.874,5.8746,5.8751,0,0,0,0,0,0,5.8145,5.821,5.8216,5.8283,5.8326,5.8382,5.8413,5.8422,5.8467,5.8465,5.8494,5.8506,5.8569,5.8595,5.8567,5.8673,5.8656,5.8664,5.8654,5.866,5.8665,5.8657,5.8564,0,0,0,0,0,5.8151,5.8198,5.8252,5.8306,5.8327,5.8367,5.8395,5.8412,5.8457,5.8474,5.851,5.8552,5.8601,5.8632,5.8679,5.8746,5.8759,5.8775,5.8779,5.8783,5.8789,5.8829,5.8837,5.8751,5.8751,5.8751,0,0,5.8162,5.8204,5.8231,5.8305,5.834,5.8389,5.8381,5.8432,5.8469,5.8481,5.8544,5.8572,5.8622,5.8689,5.8719,5.8712,5.8816,5.8788,5.879,5.8794,5.8834,5.8842,5.885,5.8754,5.8753,5.8753,0,0,5.8208,5.8244,5.8294,5.833,5.8385,5.8411,5.8423,5.8479,5.8499,5.8563,5.8575,5.8618,5.87,5.8736,5.8765,5.883,5.8836,5.8844,5.8868,5.8908,5.8914,5.8921,5.8946,5.8954,5.885,5.885,5.885,0,5.8215,5.8289,5.8318,5.837,5.8403,5.842,5.8472,5.8505,5.8571,5.8593,5.8584,5.8691,5.8725,5.8801,5.8818,5.884,5.8856,5.8838,5.8911,5.8918,5.8924,5.8948,5.8957,5.8851,5.8851,5.8851,5.8851,0,5.8296,5.8348,5.8382,5.8449,5.8485,5.8536,5.8574,5.8607,5.8622,5.8649,5.8716,5.8758,5.8816,5.8835,5.8848,5.8915,5.8909,5.8906,5.8889,5.8933,5.8956,5.8965,5.8852,5.8852,5.8851,5.8851,0,0,5.8335,5.8421,5.8433,5.8465,5.8528,5.8568,5.8621,5.868,5.8709,5.8755,5.8801,5.8872,5.8871,5.8904,5.8921,5.8956,5.9008,5.8949,5.895,5.8959,5.9086,5.9089,5.9099,5.9012,5.9014,5.9015,5.9083,0,5.839,5.8487,5.8516,5.8597,5.8647,5.8665,5.8712,5.8756,5.8784,5.883,5.8861,5.8912,5.8905,5.8925,5.896,5.8994,5.9033,5.8989,5.9056,5.9058,5.9043,5.9111,5.9114,5.9175,5.9092,5.9093,5.9094,0,5.8466,5.8517,5.8603,5.8664,5.8686,5.8727,5.8785,5.8828,5.8879,5.8898,5.8937,5.8953,5.901,5.8991,5.9071,5.9041,5.907,5.9091,5.9094,5.9101,5.9079,5.9121,5.9195,5.9205,5.9109,5.9108,5.9107,0,5.8488,5.8578,5.8642,5.8669,5.874,5.877,5.8801,5.8851,5.8885,5.8935,5.8958,5.9014,5.9044,5.9087,5.9118,5.9101,5.9196,5.9179,5.9214,5.9213,5.9233,5.9231,5.9313,5.925,5.925,5.925,5.925,0,5.8546,5.8599,5.8654,5.8693,5.8754,5.8788,5.8846,5.8878,5.8923,5.897,5.8989,5.9032,5.907,5.9118,5.9143,5.9207,5.922,5.9237,5.9243,5.9236,5.9234,5.9255,5.9252,5.9252,5.9252,5.9251,5.9251,0,5.858,5.8619,5.8691,5.8755,5.8772,5.8814,5.8869,5.8908,5.8939,5.8998,5.9013,5.9061,5.9119,5.9155,5.9228,5.9245,5.9316,5.9319,5.9299,5.9302,5.9336,5.9332,5.9434,5.9451,5.9376,5.9377,5.9377,0,5.8615,5.8657,5.8726,5.876,5.8792,5.8846,5.8882,5.8918,5.8955,5.9019,5.9051,5.9112,5.9162,5.9255,5.9295,5.9352,5.9358,5.939,5.9367,5.936,5.9361,5.9358,5.9364,5.9394,5.9395,5.9395,5.9396,0,5.8673,5.8692,5.8744,5.8805,5.8849,5.8898,5.8946,5.8972,5.9017,5.9057,5.9119,5.9158,5.9235,5.9296,5.9357,5.9389,5.94,5.9403,5.9415,5.9408,5.9395,5.9404,5.9311,5.94,5.94,5.94,5.9399,5.9399,5.871,5.8749,5.8806,5.8865,5.8906,5.8952,5.8994,5.9031,5.9083,5.915,5.9168,5.9233,5.9287,5.9371,5.9404,5.9456,5.9451,5.9467,5.9471,5.9475,5.9477,5.9387,5.9467,5.9467,5.9467,5.9467,5.9467,0,5.8771,5.8809,5.8863,5.8933,5.898,5.8989,5.9044,5.9082,5.914,5.919,5.924,5.9312,5.9372,5.9419,5.948,5.9513,5.952,5.9528,5.9526,5.9534,5.9476,5.9461,5.9521,5.9521,5.9521,5.9521,5.9521,5.9521,5.8808,5.8876,5.8902,5.8991,5.9029,5.9094,5.9126,5.9169,5.9209,5.929,5.934,5.9371,5.9421,5.9487,5.9542,5.9555,5.9577,5.9584,5.9598,5.9543,5.9537,5.9532,5.9518,5.9589,5.9589,5.9651,5.9652,5.9652]}]]